Contact Us:
Email: info@sawbill.com
Phone: (218)663-7150
Fax: (218)663-7980
Mail: 4620 Sawbill Trail
Box 2129
Tofte, MN 55615


Powered by
Movable Type 3.15
 
Sawbill Weather History Archives: October 2015
Current Sawbill Weather History | « September 2015 | November 2015 »


Date

High
Temperature

Low
Temperature

Barometric
Pressure

Relative
Humidity 7AM

9 AM
Temperature

Moisture

Snow

10/31/15 43 41 29.28 98% 43 .37"
10/30/15 41 33 29.82 98% 41 Trace
10/29/15 39 33 30.00 90% 33 Trace Trace
10/28/15 42 33 29.76 94% 34 .65" Trace
10/27/15 46 40 29.74 91% 42 .28"
10/26/15 47 26 30.24 97% 40 0
10/25/15 45 25 30.10 95% 25 0
10/24/15 48 32 30.18 77% 32 Trace
10/23/15 47 37 29.90 96% 42 .38"
10/22/15 51 37 30.10 90% 38 0
10/21/15 44 36 30.16 88% 37 Trace
10/20/15 46 34 30.00 91% 41 .06"
10/19/15 58 35 30.08 68% 35 0
10/18/15 44 26 29.90 70% 37 0
10/17/15 38 23 30.28 72% 26 0
10/16/15 36 25 30.28 60% 25 0
10/15/15 48 28 30.20 58% 28 .13"
10/14/15 55 37 29.90 74% 37 0
10/13/15 43 35 29.90 87% 37 0
10/12/15 56 39 29.78 87% 39 .2"
10/11/15 80 53 29.54 50% 53 0
10/10/15 62 38 29.74 79% 53 0
10/9/15 50 38 30.00 84% 38 0
10/8/15 49 41 30.12 95% 41 .08"
10/7/15 52 37 29.98 96% 44 .39"
10/6/15 59 34 30.16 79% 38 0
10/5/15 57 45 30.08 85% 47 0
10/4/15 53 38 30.18 85% 46 0
10/3/15 53 36 30.30 81% 43 0
10/2/15 50 36 30.38 82% 34 0
10/1/15 55 32 30.41 86% 34 0
 


Home I Trip Planning I Rentals and Outfitting I Reservations I Campgrounds I Sawbill Store I Sawbill News I Contact

© 1997 - 2017, Sawbill Canoe Outfitters, Inc. I Privacy Policy